Location: Pl�tzky
(52.0521°N, 11.8020°E)
Time: 08:25:57
(UTC+00:00)

NOAA 11 - Pass Details

Date: 22 November 2019
Orbit: 834 x 849 km, 98.4° (Epoch: 14 December)

Event Time Altitude Azimuth Distance (km) Brightness Sun altitude
Rises 18:03:47 0° 171° (S) 3,371 7.2 -25.7°
Reaches altitude 10° 18:06:09 10° 174° (S) 2,442 6.5 -26.0°
Maximum altitude 18:11:32 68° 257° (WSW) 900 4.4 -26.9°
Drops below altitude 10° 18:17:00 10° 341° (NNW) 2,467 6.8 -27.7°
Sets 18:19:24 0° 344° (NNW) 3,408 7.6 -28.1°
